Regional Weather Roundup
Issued by NWS Little Rock, AR

Home | Current Version | Previous Version | Graphics & Text | Print | Product List | Glossary On
Versions: 1 2 3 4 5 6 7 8 9 10 11 12 13 14 15 16 17 18 19 20 21 22 23 24 25 26 27 28 29 30 31 32 33 34 35 36 37 38 39 40 41 42 43 44 45 46 47 48 49 50
000
ASUS44 KLZK 032005
RWRLZK

WEATHER ROUNDUP FOR ARKANSAS
NATIONAL WEATHER SERVICE LITTLE ROCK AR
200 PM CST SAT DEC 03 2016

NOTE: "FAIR" INDICATES FEW OR NO CLOUDS BELOW 12,000 FEET WITH NO
SIGNIFICANT WEATHER AND/OR OBSTRUCTIONS TO VISIBILITY.

ARZ001-003-010-029-032100-
NORTHWEST ARKANSAS

CITY           SKY/WX    TMP DP  RH WIND       PRES   REMARKS
FAYETTEVILLE   LGT RAIN  44  41  89 E5        30.16F
FORT SMITH     LGT RAIN  46  42  86 NE13      30.13F
HARRISON       LGT RAIN  42  36  79 E10       30.19F
BENTONVILLE    PTSUNNY   46  36  66 SE9       30.16F
ROGERS         LGT RAIN  45  40  82 E7        30.17F
SILOAM SPGS    CLOUDY    45  37  76 E6        30.15F
HIGHFILL       LGT RAIN  46  41  82 E7        30.15F
SPRINGDALE     CLOUDY    45  39  81 E8        30.17F
$$

ARZ004-005-016-032100-
NORTH CENTRAL ARKANSAS

CITY           SKY/WX    TMP DP  RH WIND       PRES   REMARKS
BATESVILLE     CLOUDY    45  37  76 E8        30.24F
FLIPPIN        CLOUDY    43  34  70 E6        30.20F
MTN HOME       LGT RAIN  42  37  82 SE6       30.22F
$$

ARZ040-041-032100-
WEST CENTRAL ARKANSAS

CITY           SKY/WX    TMP DP  RH WIND       PRES   REMARKS
MENA           CLOUDY    46  45  93 E9        30.10R
MOUNT IDA      LGT RAIN  46  43  89 E5        30.08F
$$

ARZ009-017-025-026-028-032100-
NORTHEAST ARKANSAS

CITY           SKY/WX    TMP DP  RH WIND       PRES   REMARKS
CORNING        CLOUDY    45  37  76 NE6       30.29F
JONESBORO      LGT RAIN  45  38  76 NE8       30.27F
NEWPORT        LGT RAIN  45  40  82 MISG        N/A
WALNUT RIDGE   CLOUDY    45  34  65 NE8       30.27F
BLYTHEVILLE    CLOUDY    47  37  68 E6        30.28F
$$

ARZ022-023-033-042-044-032100-
CENTRAL ARKANSAS

CITY           SKY/WX    TMP DP  RH WIND       PRES   REMARKS
LITTLE ROCK    RAIN      45  45 100 E10       30.18F FOG
N LITTLE ROCK    N/A     44  43  95 E9        30.18F
JACKSONVILLE   LGT RAIN  44  44  98 NE9       30.17F
SEARCY         LGT RAIN  44  42  93 NE9       30.23F
HOT SPRINGS    LGT RAIN  46  45  96 E12       30.12F
RUSSELLVILLE   LGT RAIN  45  42  89 E8        30.15F
$$

ARZ036-032100-
EAST ARKANSAS

CITY           SKY/WX    TMP DP  RH WIND       PRES   REMARKS
WEST MEMPHIS   LGT RAIN  46  38  73 SE7       30.24F
$$

ARZ050-053-066-070-073-032100-
SOUTHWEST ARKANSAS

CITY           SKY/WX    TMP DP  RH WIND       PRES   REMARKS
ARKADELPHIA    RAIN      46  45  96 E8        30.13F
CAMDEN         LGT RAIN  46  43  87 E12       30.12F
TEXARKANA      LGT RAIN  46  46 100 E7G17     30.05F
EL DORADO      LGT RAIN  47  45  93 E14       30.10S
DE QUEEN       RAIN      47  46  97 E14G21    30.07S FOG
$$

ARZ056-057-069-032100-
SOUTHEAST ARKANSAS

CITY           SKY/WX    TMP DP  RH WIND       PRES   REMARKS
PINE BLUFF     LGT RAIN  47  45  93 E14       30.18F
STUTTGART      CLOUDY    46  41  81 E10       30.20F
MONTICELLO     LGT RAIN  46  44  93 E15G22    30.14F

$$





USA.gov is the U.S. government's official web portal to all federal, state and local government web resources and services.